Shreveport Downtown, LA

10:53 PM CDT on March 27, 2017 (GMT -0500)
Shreveport Downtown

Weather History for KDTN - November, 2012

Change the Weather History Date:

Saturday, November 24, 2012

  Actual Average (KBAD) Record (KBAD)
Temperature  
Mean Temperature 44 °F -  
Max Temperature 54 °F 61 °F 80 °F (2010)
Min Temperature 35 °F 43 °F 26 °F (2003)
Degree Days  
Heating Degree Days 20    
Moisture  
Dew Point 26 °F    
Average Humidity 54    
Maximum Humidity 76    
Minimum Humidity 28    
Precipitation  
Precipitation 0.00 in - - ()
Sea Level Pressure  
Sea Level Pressure 30.31 in    
Wind  
Wind Speed 2 mph (NNE)    
Max Wind Speed 7 mph    
Max Gust Speed -    
Visibility 10 miles    
Events      
Averages and records for this station are not official NWS values.
T = Trace of Precipitation, MM = Missing Value Source: NWS Daily Summary

Daily Weather History Graph

Daily Weather History Graph

Search for Another Location

Airport or City:

Trip Planner

Search our weather history database for the weather conditions in past years. The results will help you decide how hot, cold, wet, or windy it might be!

Date:

Astronomy

Nov. 24, 2012 Rise Set
Actual Time 6:53 AM CST 5:10 PM CST
Civil Twilight 6:26 AM CST 5:36 PM CST
Nautical Twilight 5:56 AM CST 6:06 PM CST
Astronomical Twilight 5:27 AM CST 6:36 PM CST
Moon 2:47 PM CST (11/24) 3:20 AM CST (11/24)
Length of Visible Light 11h 10m
Length of Day
10h 17m
Waxing Gibbous, 87% of the Moon is Illuminated
Nov 24
Waxing Gibbous
Nov 28
Full
Dec 6
Last Quarter
Dec 13
New
Dec 19
First Quarter

Hourly Weather History & Observations

Time (CST) Temp. Windchill Dew Point Humidity Pressure Visibility Wind Dir Wind Speed Gust Speed Precip Events Conditions
12:53 AM 42.1 °F 40.2 °F 28.0 °F 58% 30.39 in 10.0 mi NNW 3.5 mph - N/A   Clear
1:53 AM 41.0 °F - 28.0 °F 60% 30.39 in 10.0 mi Calm Calm - N/A   Clear
2:53 AM 39.9 °F 37.8 °F 28.0 °F 63% 30.39 in 10.0 mi North 3.5 mph - N/A   Clear
3:53 AM 39.0 °F - 27.0 °F 62% 30.39 in 10.0 mi Calm Calm - N/A   Clear
4:53 AM 37.9 °F 34.4 °F 27.0 °F 65% 30.39 in 10.0 mi North 4.6 mph - N/A   Clear
6:53 AM 35.1 °F - 27.0 °F 72% 30.41 in 10.0 mi Calm Calm - N/A   Clear
7:53 AM 37.9 °F 35.5 °F 28.0 °F 68% 30.42 in 10.0 mi North 3.5 mph - N/A   Clear
8:53 AM 41.0 °F 37.1 °F 27.0 °F 57% 30.43 in 10.0 mi NE 5.8 mph - N/A   Clear
9:53 AM 44.1 °F 40.1 °F 24.1 °F 45% 30.43 in 10.0 mi East 6.9 mph - N/A   Clear
10:53 AM 46.0 °F - 25.0 °F 44% 30.41 in 10.0 mi Calm Calm - N/A   Clear
11:53 AM 46.9 °F - 25.0 °F 42% 30.36 in 10.0 mi West 4.6 mph - N/A   Clear
12:53 PM 51.1 °F - 24.1 °F 35% 30.32 in 10.0 mi NNE 4.6 mph - N/A   Clear
1:53 PM 53.1 °F - 21.9 °F 30% 30.29 in 10.0 mi NNE 3.5 mph - N/A   Clear
2:53 PM 54.0 °F - 21.0 °F 28% 30.27 in 10.0 mi Calm Calm - N/A   Clear
3:53 PM 53.1 °F - 21.9 °F 30% 30.25 in 10.0 mi Calm Calm - N/A   Clear
4:53 PM 52.0 °F - 21.0 °F 30% 30.24 in 10.0 mi Calm Calm - N/A   Clear
5:53 PM 45.0 °F - 28.0 °F 52% 30.23 in 10.0 mi Calm Calm - N/A   Clear
6:53 PM 39.9 °F - 28.9 °F 65% 30.22 in 10.0 mi Calm Calm - N/A   Clear
7:53 PM 42.1 °F 40.2 °F 28.9 °F 60% 30.22 in 10.0 mi SSE 3.5 mph - N/A   Clear
8:53 PM 39.0 °F - 30.0 °F 70% 30.21 in 10.0 mi Calm Calm - N/A   Clear
9:53 PM 37.9 °F - 30.0 °F 73% 30.20 in 10.0 mi Calm Calm - N/A   Clear
10:53 PM 39.9 °F - 28.9 °F 65% 30.19 in 10.0 mi Calm Calm - N/A   Clear
11:53 PM 37.0 °F - 30.0 °F 76% 30.18 in 10.0 mi Calm Calm - N/A   Clear